Regional Weather Roundup
Issued by NWS

Home | Current Version | Previous Version | Text Only | Print | Product List | Glossary Off
Versions: 1 2 3 4 5 6 7 8 9 10 11 12 13 14 15 16 17 18 19 20 21 22 23 24 25 26 27 28 29 30 31 32 33 34 35 36 37 38 39 40 41 42 43 44 45 46 47 48 49 50

000
ASUS43 KMPX 310110
RWRMN
WEATHER ROUNDUP FOR MINNESOTA
NATIONAL WEATHER SERVICE TWIN CITIES/CHANHASSEN MN
800 PM CDT THU JUL 30 2015


NOTE: "FAIR" INDICATES FEW OR NO CLOUDS BELOW 12,000 FEET WITH NO
SIGNIFICANT WEATHER AND/OR OBSTRUCTIONS TO VISIBILITY. N/A MEANS
CURRENT SKY AND/OR WEATHER CONDITIONS ARE NOT AVAILABLE.

MNZ060>063-068>070-310200-
   Twin Cities Metro

CITY           SKY/WX    TMP DP  RH WIND       PRES   REMARKS
TWIN CITIES    CLEAR     81  58  45 W12       30.01S
ST PAUL        CLEAR     80  57  45 W12       30.00S
CRYSTAL        CLEAR     81  57  43 W12       29.99F
BLAINE         PTCLDY    82  57  42 W9        30.00S
LAKEVILLE      CLEAR     75  63  64 W3        30.02S
EDEN PRAIRIE   CLEAR     80  60  50 W5        30.00F
SOUTH ST PAUL  CLEAR     81  55  39 W12       30.00S
LAKE ELMO      FAIR      79  55  44 W14       30.01S
$$
MNZ001>005-007-008-013>017-022>024-027-028-310200-
   Northwest Minnesota

CITY           SKY/WX    TMP DP  RH WIND       PRES   REMARKS
BEMIDJI        CLEAR     75  55  50 W12       29.97S
HALLOCK        CLEAR     75  48  38 W16       29.95R
ROSEAU         PTCLDY    75  59  57 NW10G18   29.92R
WARROAD        MOCLDY    70  61  73 NW8       29.92R
THIEF RVR FALL PTCLDY    75  54  46 W13       29.96S
CROOKSTON      MOCLDY    75  57  53 NW8       29.97S
FOSSTON        CLEAR     75  52  43 W10G18    29.99S
DETROIT LAKES  CLEAR     77  54  44 W12G17    30.03S
MOORHEAD       CLEAR     75  55  50 NW10      30.02S
PARK RAPIDS    CLEAR     76  55  48 W14       30.00S
MAHNOMEN       FAIR      74  56  53 W9G17     30.00S
$$
MNZ006-009>011-018-025>026-310200-
   North Central Minnesota

CITY           SKY/WX    TMP DP  RH WIND       PRES   REMARKS
BAUDETTE       PTCLDY    70  56  61 W6        29.91R
FLAG ISLAND    CLOUDY    72  54  53 W14G23    29.88S
INTL FALLS     CLEAR     72  54  53 W10       29.88S
WASKISH        CLEAR     73  59  60 W13G21    29.93R
BIG FORK       CLEAR     75  54  46 W6        29.93S
LONGVILLE      CLEAR     73  54  49 W6        29.97F
GRAND RAPIDS   CLEAR     75  50  41 W10G20    29.95F
CRANE LAKE     CLEAR     73  52  46 W3        29.89S
ORR            PTCLDY    72  52  49 CALM      29.88S
COOK           PTCLDY    73  55  53 W7        29.91S
WALKER         MOCLDY    73  53  49 W7        29.98S
$$
MNZ012-019>021-037-310200-
   Northeast Minnesota

CITY           SKY/WX    TMP DP  RH WIND       PRES   REMARKS
DULUTH         PTCLDY    76  54  46 W9        29.93S
ELY            PTCLDY    73  54  49 W9        29.89R
HIBBING        CLEAR     75  52  44 W8        29.93S
EVELETH        CLEAR     73  50  43 W9G17     29.93S
DULUTH HARBOR  CLEAR     79  57  47 W12       29.91R
TWO HARBORS    CLEAR     79  57  47 W9        29.88S
SILVER BAY     CLEAR     75  54  46 CALM      29.87R
GRAND MARAIS     N/A     53  49  86 W5        29.83R
G MARAIS ARPRT PTCLDY    66  57  72 CALM      29.88S
$$
MNZ029>031-032-039>041-046>048-054>057-064-310200-
   West Central Minnesota

CITY           SKY/WX    TMP DP  RH WIND       PRES   REMARKS
FERGUS FALLS   CLEAR     75  57  53 NW8       30.01S
WHEATON        CLEAR     75  61  60 W6        30.06R
MORRIS         CLEAR     79  61  53 NW9       30.04R
ALEXANDRIA     CLEAR     77  57  50 NW10      30.05S
ELBOW LAKE     FAIR      75  60  59 W7        30.04S
WADENA         CLEAR     75  54  46 W7        30.02S
GLENWOOD       CLEAR     77  61  57 NW7       30.05S
APPLETON       CLEAR     81  63  54 NW6       30.03R
BENSON         CLEAR     79  63  57 N5        30.03S
ORTONVILLE     CLEAR     81  57  44 NW10      30.04S
MADISON        CLEAR     81  63  54 NW6       30.04S
WILLMAR        FAIR      79  64  61 W3        30.04S
$$
MNZ033>034-036-042>043-049>051-058-059-310200-
   Central Minnesota

CITY           SKY/WX    TMP DP  RH WIND       PRES   REMARKS
ST CLOUD       CLEAR     79  56  45 W12G21    30.00F
SAUK CENTRE    FAIR      76  60  57 W7        30.03S
PAYNESVILLE    CLEAR     75  60  58 W5        30.04S
AITKIN         CLEAR     75  54  46 W5        29.97R
PINE RIVER     CLEAR     75  55  50 W9        30.02S
BRAINERD       CLEAR     77  52  41 NW12      29.99S
STAPLES        CLEAR     73  54  49 W8        30.01S
LONG PRAIRIE   FAIR      77  55  47 W7        30.03S
LITTLE FALLS   CLEAR     77  54  44 W8        30.01S
LITCHFIELD     CLEAR     79  64  61 CALM      30.03F
BUFFALO        CLEAR     79  59  50 W5        30.02S
MAPLE LAKE     CLEAR     79  59  50 W6        30.02F
$$
MNZ037-044-045-052-053-310200-
   East Central Minnesota

CITY           SKY/WX    TMP DP  RH WIND       PRES   REMARKS
PRINCETON      CLEAR     79  61  53 W7        30.00S
MORA           CLEAR     75  57  53 W5        30.00S
CAMBRIDGE      CLEAR     81  61  50 W7        29.98S
RUSH CITY      CLEAR     76  59  55 W6        29.98F
MOOSE LAKE     CLEAR     75  54  46 W5        29.94S
HINCKLEY       FAIR      77  61  57 W3        29.97S
CLOQUET        CLEAR     75  48  38 W12G20    29.94S
MCGREGOR       PTCLDY    77  55  47 W6        29.97R
$$
MNZ071>073-080-081-089-090-097-098-310200-
   Southwest Minnesota

CITY           SKY/WX    TMP DP  RH WIND       PRES   REMARKS
MONTEVIDEO     CLEAR     81  61  50 W5        30.05S
GRANITE FALLS  MOCLDY    77  68  74 SW5       30.05S
CANBY          CLEAR     80  60  51 W5        30.06S
MARSHALL       CLEAR     79  61  53 W8        30.07F
REDWOOD FALLS  CLEAR     82  60  47 W7        30.03F
OLIVIA         CLEAR     75  61  60 W5        30.03F
PIPESTONE      CLEAR     77  64  65 W5        30.11S
WINDOM         CLEAR     79  64  61 CALM      30.08S
WORTHINGTON    CLEAR     79  64  61 W6        30.10S
JACKSON        CLEAR     79  64  61 W5        30.10S
TRACY          CLEAR     81  64  57 W3        30.08S
SLAYTON        CLEAR     78  63  58 CALM      30.11S
$$
MNZ065>067-074>077-082>085-091>093-310200-
   South Central Minnesota

CITY           SKY/WX    TMP DP  RH WIND       PRES   REMARKS
MANKATO        CLEAR     77  61  57 W7        30.04S
NEW ULM        CLEAR     77  63  61 SW5       30.04S
ST JAMES       CLEAR     81  66  61 SW5       30.06S
FAIRMONT       CLEAR     81  61  50 W6        30.07S
GLENCOE        CLEAR     79  66  63 SW3       30.02F
FARIBAULT      CLEAR     77  63  61 SW3       30.04F
OWATONNA       CLEAR     75  63  64 SW6       30.05S
WASECA         CLEAR     73  63  68 SW3       30.06F
ALBERT LEA     CLEAR     77  63  61 SW3       30.06F
$$
MNZ078>079-086>088-094>096-310200-
   Southeast Minnesota

CITY           SKY/WX    TMP DP  RH WIND       PRES   REMARKS
ROCHESTER      CLEAR     73  63  70 W6        30.06S
RED WING       CLEAR     81  57  44 W6        29.99S
STANTON        CLEAR     78  61  55 W3        30.01S
DODGE CENTER   CLEAR     73  64  73 SW5       30.06S
WINONA         CLEAR     79  55  44 W9        30.01S
AUSTIN         CLEAR     79  57  47 W6        30.06S
PRESTON        CLEAR     75  60  59 W5        30.07S
$$
ABBREVIATIONS USED IN REMARKS
   TC - TEMPERATURES IN CELSIUS
  WCI - WIND CHILL INDEX
   HX - HEAT INDEX
  VSB - VISIBILITY
$$


USA.gov is the U.S. government's official web portal to all federal, state and local government web resources and services.